sat.trackr.live / text

‹ back to catalog

STARLINK-6037

NORAD 56461 · 2023-064P

PAYLOAD ACTIVE UNKNOWN

§ Identity

Operator
Country
US
Launch date
2023-05-10
Launch site
AFWTR
Launch vehicle
Mass (kg)
RCS (m²)

Purposes: comms

External: N2YO · Heavens-Above · Gunter

§ Orbital elements

Epoch: 2026-09-20T14:04:46.374240Z

Period
96.11 min
Inclination
70.0008°
Eccentricity
0.0003214
Mean motion
14.98331242 rev/d
Perigee alt
569.8 km
Apogee alt
574.3 km
Semi-major
6,950.2 km
B*
3.6285e-5
RAAN
12.8942°
Arg perigee
269.9192°
Mean anomaly
90.1599°
Rev number
18,444

§ Raw data

STARLINK-60371 56461U 23064P   26263.58664785  .00000340  00000+0  36285-4 0  99992 56461  70.0008  12.8942 0003214 269.9192  90.1599 14.98331242184444

JSON: /api/v1/satellites/56461 · /tle

For live sub-satellite position, see the globe view (requires WebGL).

§ Visibility from observer

Set your observer location to see the next 7 days of passes ≥ 10°. The values pass through the URL so the page stays shareable.

No JS? Fill the form by hand. The geolocation button needs JavaScript.